SWA1763 KPHX-KLAX

Flight info

Callsign SWA1763
Flight time N/A
Altitude 32000
Route KEENS3 WLVRN ESTWD HLYWD1
Aircraft B738/M-SADE2E3GIJ4RWZ/LB1D1

Departure

Time N/A
Airport Phoenix Sky Harbor International Airport (KPHX)

Arrival

Time 2026-04-22 18:44
Airport Los Angeles International Airport (KLAX)
Time Latitude Longitude Altitude Speed Heading
2026-04-22 17:51 33.44343 -112.51107 21524 ft 277 kts 272°
2026-04-22 17:51 33.44508 -112.53305 22157 ft 280 kts 272°
2026-04-22 17:51 33.44682 -112.55638 22863 ft 281 kts 272°
2026-04-22 17:52 33.44856 -112.57969 23560 ft 282 kts 272°
2026-04-22 17:52 33.45021 -112.60321 24114 ft 284 kts 271°
2026-04-22 17:52 33.45087 -112.62699 24635 ft 287 kts 269°
2026-04-22 17:52 33.45108 -112.65093 25176 ft 289 kts 269°
2026-04-22 17:53 33.45126 -112.67505 25717 ft 291 kts 269°
2026-04-22 17:53 33.45150 -112.69938 26245 ft 294 kts 269°
2026-04-22 17:53 33.45179 -112.72372 26811 ft 294 kts 269°
2026-04-22 17:53 33.45210 -112.74801 27527 ft 289 kts 269°
2026-04-22 17:54 33.45241 -112.77197 28232 ft 286 kts 269°
2026-04-22 17:54 33.45385 -112.79574 28747 ft 289 kts 275°
2026-04-22 17:54 33.45839 -112.81936 29262 ft 294 kts 285°
2026-04-22 17:54 33.46649 -112.84248 29341 ft 312 kts 290°
2026-04-22 17:55 33.47611 -112.86637 29483 ft 324 kts 290°
2026-04-22 17:55 33.48598 -112.89132 29523 ft 337 kts 289°
2026-04-22 17:55 33.49545 -112.91748 29628 ft 348 kts 288°
2026-04-22 17:55 33.50472 -112.94484 29694 ft 361 kts 287°
2026-04-22 17:56 33.51421 -112.97320 29773 ft 372 kts 287°
2026-04-22 17:56 33.52404 -113.00235 29842 ft 383 kts 288°
2026-04-22 17:56 33.53427 -113.03231 29940 ft 393 kts 288°
2026-04-22 17:57 33.55571 -113.09436 30082 ft 413 kts 288°
2026-04-22 17:57 33.57824 -113.15912 30288 ft 426 kts 288°
2026-04-22 17:57 33.58968 -113.19194 30660 ft 425 kts 288°
2026-04-22 17:58 33.60105 -113.22456 31063 ft 423 kts 288°
2026-04-22 17:58 33.61236 -113.25708 31333 ft 424 kts 288°
2026-04-22 17:58 33.62376 -113.28997 31511 ft 426 kts 288°
2026-04-22 17:58 33.63513 -113.32283 31678 ft 428 kts 288°
2026-04-22 17:59 33.64657 -113.35589 31867 ft 428 kts 288°
2026-04-22 17:59 33.65796 -113.38889 32039 ft 429 kts 288°
2026-04-22 17:59 33.66939 -113.42203 31987 ft 431 kts 288°
2026-04-22 17:59 33.68084 -113.45519 32154 ft 427 kts 288°
2026-04-22 18:00 33.68852 -113.47749 32118 ft 428 kts 288°
2026-04-22 18:00 33.71487 -113.55409 32143 ft 427 kts 288°
2026-04-22 18:01 33.73745 -113.61993 32138 ft 427 kts 288°
2026-04-22 18:01 33.76023 -113.68648 32043 ft 427 kts 288°
2026-04-22 18:02 33.78270 -113.75222 32035 ft 428 kts 288°
2026-04-22 18:02 33.80520 -113.81822 32039 ft 426 kts 288°
2026-04-22 18:03 33.82763 -113.88442 32050 ft 426 kts 288°
2026-04-22 18:03 33.84983 -113.95014 32040 ft 426 kts 288°
2026-04-22 18:04 33.87206 -114.01606 32040 ft 425 kts 288°
2026-04-22 18:04 33.89443 -114.08251 32033 ft 425 kts 288°
2026-04-22 18:05 33.91226 -114.14955 32055 ft 418 kts 275°
2026-04-22 18:05 33.91923 -114.21910 32071 ft 419 kts 275°
2026-04-22 18:06 33.93106 -114.28742 32057 ft 421 kts 280°
2026-04-22 18:06 33.94516 -114.35631 32037 ft 421 kts 279°
2026-04-22 18:07 33.95572 -114.41331 32056 ft 419 kts 278°
2026-04-22 18:07 33.96939 -114.49334 32056 ft 418 kts 278°
2026-04-22 18:08 33.98085 -114.56223 32063 ft 418 kts 278°
2026-04-22 18:08 33.99224 -114.63073 32059 ft 418 kts 278°
2026-04-22 18:09 34.00366 -114.69947 32056 ft 418 kts 278°
2026-04-22 18:09 34.01503 -114.76813 32057 ft 418 kts 278°
2026-04-22 18:10 34.02639 -114.83691 32067 ft 418 kts 278°
2026-04-22 18:10 34.03768 -114.90559 32044 ft 418 kts 278°
2026-04-22 18:11 34.04894 -114.97427 32072 ft 417 kts 278°
2026-04-22 18:11 34.06015 -115.04295 32060 ft 418 kts 277°
2026-04-22 18:12 34.07135 -115.11171 32073 ft 417 kts 277°
2026-04-22 18:12 34.08058 -115.16852 32068 ft 415 kts 277°
2026-04-22 18:13 34.09354 -115.24865 32054 ft 417 kts 277°
2026-04-22 18:13 34.10459 -115.31725 32056 ft 417 kts 277°
2026-04-22 18:14 34.11559 -115.38576 32057 ft 415 kts 277°
2026-04-22 18:14 34.12646 -115.45373 32057 ft 415 kts 277°
2026-04-22 18:15 34.13740 -115.52243 32071 ft 415 kts 277°
2026-04-22 18:15 34.14826 -115.59083 32057 ft 415 kts 277°
2026-04-22 18:16 34.15903 -115.65893 32062 ft 415 kts 277°
2026-04-22 18:16 34.16319 -115.72733 32089 ft 407 kts 261°
2026-04-22 18:17 34.15222 -115.79465 32115 ft 409 kts 259°
2026-04-22 18:17 34.14570 -115.86295 32101 ft 409 kts 264°
2026-04-22 18:18 34.14055 -115.93138 32125 ft 409 kts 263°
2026-04-22 18:18 34.13389 -115.99949 32145 ft 408 kts 262°
2026-04-22 18:19 34.12708 -116.06787 32151 ft 407 kts 262°
2026-04-22 18:19 34.12382 -116.10108 32024 ft 398 kts 262°
2026-04-22 18:19 34.12059 -116.13395 31335 ft 393 kts 262°
2026-04-22 18:19 34.11735 -116.16685 30419 ft 397 kts 262°
2026-04-22 18:20 34.11515 -116.18914 29725 ft 399 kts 262°
2026-04-22 18:20 34.11183 -116.22257 28943 ft 397 kts 262°
2026-04-22 18:20 34.10858 -116.25530 28287 ft 391 kts 262°
2026-04-22 18:20 34.10536 -116.28761 27628 ft 386 kts 262°
2026-04-22 18:21 34.10211 -116.31960 26918 ft 384 kts 262°
2026-04-22 18:21 34.09871 -116.35156 26225 ft 382 kts 261°
2026-04-22 18:21 34.09530 -116.38319 25642 ft 377 kts 261°
2026-04-22 18:21 34.09193 -116.41436 25064 ft 374 kts 261°
2026-04-22 18:22 34.08855 -116.44575 24452 ft 371 kts 262°
2026-04-22 18:22 34.08523 -116.47655 23854 ft 369 kts 262°
2026-04-22 18:22 34.08197 -116.50676 23262 ft 366 kts 262°
2026-04-22 18:22 34.07871 -116.53701 22650 ft 362 kts 262°
2026-04-22 18:23 34.07547 -116.56701 21976 ft 360 kts 262°
2026-04-22 18:23 34.07226 -116.59686 21307 ft 359 kts 262°
2026-04-22 18:23 34.06936 -116.62671 20643 ft 357 kts 263°
2026-04-22 18:24 34.06399 -116.68583 19509 ft 352 kts 263°
2026-04-22 18:24 34.06135 -116.71509 18945 ft 350 kts 263°
2026-04-22 18:24 34.05597 -116.77345 17748 ft 346 kts 263°
2026-04-22 18:25 34.05330 -116.80173 17303 ft 342 kts 263°
2026-04-22 18:25 34.05065 -116.83012 17139 ft 330 kts 263°
2026-04-22 18:25 34.04811 -116.85710 16970 ft 319 kts 264°
2026-04-22 18:26 34.04279 -116.90990 16072 ft 316 kts 262°
2026-04-22 18:26 34.03931 -116.93611 15627 ft 316 kts 261°
2026-04-22 18:26 34.03575 -116.96206 15146 ft 315 kts 262°
2026-04-22 18:26 34.03230 -116.98781 14710 ft 314 kts 262°
2026-04-22 18:27 34.02889 -117.01379 14300 ft 313 kts 262°
2026-04-22 18:27 34.02553 -117.03987 14072 ft 305 kts 263°
2026-04-22 18:27 34.02252 -117.06492 13974 ft 302 kts 263°
2026-04-22 18:27 34.01961 -117.08983 13937 ft 299 kts 263°
2026-04-22 18:28 34.01676 -117.11423 13861 ft 295 kts 263°
2026-04-22 18:28 34.01388 -117.13874 13476 ft 295 kts 263°
2026-04-22 18:28 34.01099 -117.16324 12985 ft 297 kts 263°
2026-04-22 18:28 34.00805 -117.18793 12589 ft 297 kts 263°
2026-04-22 18:29 34.00508 -117.21277 12228 ft 294 kts 263°
2026-04-22 18:29 34.00221 -117.23680 12016 ft 292 kts 263°
2026-04-22 18:29 33.99928 -117.26129 12004 ft 293 kts 263°
2026-04-22 18:29 33.99635 -117.28574 12036 ft 297 kts 263°
2026-04-22 18:30 33.99341 -117.31037 11952 ft 295 kts 263°
2026-04-22 18:30 33.98764 -117.35926 11976 ft 296 kts 263°
2026-04-22 18:30 33.98477 -117.38374 11989 ft 293 kts 263°
2026-04-22 18:31 33.98187 -117.40833 11988 ft 292 kts 263°
2026-04-22 18:31 33.97905 -117.43227 11986 ft 292 kts 263°
2026-04-22 18:31 33.97622 -117.45630 11824 ft 290 kts 263°
2026-04-22 18:31 33.97352 -117.48030 11475 ft 289 kts 266°
2026-04-22 18:32 33.97584 -117.50432 10944 ft 291 kts 287°
2026-04-22 18:32 33.98229 -117.52720 10655 ft 287 kts 289°
2026-04-22 18:32 33.98841 -117.54995 10325 ft 285 kts 285°
2026-04-22 18:32 33.99346 -117.57305 10046 ft 282 kts 284°
2026-04-22 18:33 33.99819 -117.59542 10009 ft 269 kts 284°
2026-04-22 18:33 34.00284 -117.61640 10000 ft 256 kts 285°
2026-04-22 18:33 34.00758 -117.63704 9986 ft 249 kts 285°
2026-04-22 18:33 34.01224 -117.65700 9997 ft 246 kts 286°
2026-04-22 18:34 34.01690 -117.67683 9853 ft 248 kts 286°
2026-04-22 18:34 34.02124 -117.69693 9543 ft 247 kts 279°
2026-04-22 18:34 34.02007 -117.71783 9106 ft 254 kts 262°
2026-04-22 18:34 34.01702 -117.73869 8823 ft 252 kts 264°
2026-04-22 18:35 34.01494 -117.75963 8497 ft 253 kts 266°
2026-04-22 18:35 34.01331 -117.78082 8213 ft 250 kts 266°
2026-04-22 18:35 34.01166 -117.80151 7719 ft 250 kts 266°
2026-04-22 18:35 34.00981 -117.82247 7178 ft 253 kts 265°
2026-04-22 18:36 34.00786 -117.84340 6873 ft 245 kts 265°
2026-04-22 18:36 34.00596 -117.86325 6671 ft 235 kts 265°
2026-04-22 18:36 34.00407 -117.88279 6212 ft 236 kts 265°
2026-04-22 18:36 34.00216 -117.90241 5805 ft 235 kts 264°
2026-04-22 18:37 34.00025 -117.92190 5379 ft 235 kts 264°
2026-04-22 18:37 33.99835 -117.94141 4992 ft 233 kts 263°
2026-04-22 18:37 33.99645 -117.96074 4727 ft 230 kts 263°
2026-04-22 18:37 33.99457 -117.97995 4437 ft 230 kts 263°
2026-04-22 18:38 33.99269 -117.99899 4082 ft 228 kts 262°
2026-04-22 18:38 33.99083 -118.01775 4036 ft 229 kts 262°
2026-04-22 18:38 33.98888 -118.03712 4017 ft 234 kts 262°
2026-04-22 18:39 33.98559 -118.07573 3999 ft 232 kts 264°
2026-04-22 18:39 33.98395 -118.09538 3990 ft 230 kts 263°
2026-04-22 18:39 33.98208 -118.11431 3986 ft 226 kts 263°
2026-04-22 18:39 33.98013 -118.13301 3978 ft 223 kts 262°
2026-04-22 18:40 33.97818 -118.15152 3989 ft 222 kts 262°
2026-04-22 18:40 33.97622 -118.17008 3893 ft 228 kts 262°
2026-04-22 18:40 33.97419 -118.18938 3597 ft 231 kts 262°
2026-04-22 18:40 33.97222 -118.20826 3312 ft 222 kts 262°
2026-04-22 18:41 33.97032 -118.22640 3006 ft 214 kts 261°
2026-04-22 18:41 33.96850 -118.24382 2734 ft 207 kts 261°
2026-04-22 18:41 33.96668 -118.26106 2445 ft 202 kts 262°
2026-04-22 18:41 33.96501 -118.27724 2182 ft 191 kts 261°
2026-04-22 18:42 33.96345 -118.29247 1948 ft 175 kts 262°
2026-04-22 18:42 33.96200 -118.30641 1741 ft 158 kts 261°
2026-04-22 18:42 33.96068 -118.31910 1475 ft 146 kts 262°
2026-04-22 18:42 33.95945 -118.33092 1311 ft 144 kts 261°
2026-04-22 18:43 33.95821 -118.34283 1128 ft 146 kts 261°
2026-04-22 18:43 33.95695 -118.35501 917 ft 145 kts 262°
2026-04-22 18:43 33.95571 -118.36696 709 ft 144 kts 262°
2026-04-22 18:43 33.95447 -118.37897 495 ft 146 kts 263°
2026-04-22 18:44 33.95325 -118.39080 307 ft 138 kts 263°
2026-04-22 18:44 33.95209 -118.40191 135 ft 127 kts 262°
2026-04-22 18:44 33.95104 -118.41157 94 ft 99 kts 264°
2026-04-22 18:44 33.95045 -118.41712 94 ft 42 kts 253°
2026-04-22 18:45 33.94926 -118.41937 93 ft 28 kts 236°
2026-04-22 18:45 33.94873 -118.42029 95 ft 5 kts 234°
2026-04-22 18:45 33.94857 -118.42054 95 ft 5 kts 234°